Regional Weather Roundup
Issued by NWS Grand Forks, ND

Home | Current Version | Previous Version | Graphics & Text | Print | Product List | Glossary On
Versions: 1 2 3 4 5 6 7 8 9 10 11 12 13 14 15 16 17 18 19 20 21 22 23 24 25 26 27 28 29 30 31 32 33 34 35 36 37 38 39 40 41 42 43 44 45 46 47 48 49 50
000
ASUS43 KFGF 290510
RWRFGF
PRAIRIE TO PINES  WEATHER ROUNDUP
NATIONAL WEATHER SERVICE EASTERN NORTH DAKOTA/GRAND FORKS ND
1100 PM CST WED JAN 28 2015

 **SATELLITE DATA USED TO AUGMENT SKY COVER AT AUTOMATED STATIONS**
 *****  WEATHER ACROSS EASTERN NORTH DAKOTA  *****

CITY           SKY/WX    TMP DP  RH WIND       PRES   REMARKS
GRAND FORKS    CLOUDY    25  21  85 N18       30.07R WCI  11
GRAND FRKS AFB CLOUDY    24  20  83 N16       30.08R WCI  11
GRAND FRKS NWS   N/A     23 N/A N/A N15         N/A  WCI  10
DEVILS LAKE    CLOUDY    25  19  80 N17       30.12R WCI  11
FARGO          CLOUDY    30  26  85 NW18G29   30.04R WCI  18
WAHPETON ARPT  CLOUDY    32  28  86 NW20G28   30.02R WCI  20
$$

 ***** WEATHER ACROSS CENTRAL AND WESTERN NORTH DAKOTA  *****

CITY           SKY/WX    TMP DP  RH WIND       PRES   REMARKS
BISMARCK       CLOUDY    33  28  81 NW15G23   30.21R WCI  23
MINOT          CLOUDY    29  25  85 NW17      30.21R WCI  17
JAMESTOWN      CLOUDY    27  22  81 NW22G31   30.11R WCI  13
MINOT AFB      CLOUDY    29  29  99 NW18      30.21R WCI  16
GARRISON         N/A     31  28  89 NW18      30.21R WCI  19
WILLISTON      CLOUDY    32  27  81 N15G24    30.30R WCI  22
DICKINSON      CLOUDY    32  27  81 NW13      30.24R WCI  22
HETTINGER      CLOUDY    32  26  78 NW17G28   30.26R WCI  21
$$

 *****  OTHER AIRPORT OBSERVATIONS IN OUR AREA  *****

CITY           SKY/WX    TMP DP  RH WIND       PRES   REMARKS
WALHALLA         N/A     19  19 100 NW20G25   30.14R WCI   4
GRAFTON AIRPOR NOT AVBL
VALLEY CITY AR FLURRIES  27  27 100 N24G35    30.08R WCI  12
CANDO          CLOUDY    23  21  93 NW18      30.14R WCI   9
CAVALIER APRT  CLOUDY    19  16  86 NW17G23   30.12R WCI   4
GWINNER        CLOUDY    32  32 100 N24       30.08R WCI  19
SHEYENNE NWR     N/A     30  25  82 NW16      29.95  WCI  19
ROLLA          CLOUDY    19  19 100 NW25G31   30.14R WCI   2
 ***** THE ABOVE OBSERVATIONS ARE NON NWS ARE NOT QUALITY
       CONTROLLED AND MAY MIS-REPORT RAIN FOR SNOW...
$$

  *****  WEATHER ACROSS NORTHERN MINNESOTA  *****

CITY           SKY/WX    TMP DP  RH WIND       PRES   REMARKS
FLAG ISLAND    CLOUDY    28  25  86 NW17      29.92R WCI  16
WARROAD        CLOUDY    28  25  86 NW15      29.95R WCI  17
ROSEAU         CLOUDY    28  23  80 NW18      29.97R WCI  16
HALLOCK        CLOUDY    18  16  93 NW22G29   30.07R WCI   0
THF RVR FALLS  CLOUDY    21  21 100 NW24      29.99R WCI   4
BAUDETTE       CLOUDY    29  26  89 NW16      29.90R WCI  17
WASKISH        CLOUDY    30  28  93 NW10G17   29.90R WCI  21
CROOKSTON      CLOUDY    21  21 100 N22G28    30.05R WCI   5
STEPHEN NDAWN    N/A     19  16  86 N22         N/A  WCI   3
GREENBUSH NDAW   N/A     21  21 100 NW20        N/A  WCI   6
$$
  *****  WEATHER ACROSS CENTRAL AND WEST MINNESOTA  *****

CITY           SKY/WX    TMP DP  RH WIND       PRES   REMARKS
FOSSTON        CLOUDY    25  25 100 NW16G24   29.97R FOG     WCI  12
BEMIDJI        LGT SNOW  31  30  95 NW15      29.89R WCI  21
PARK RAPIDS    FLURRIES  32  30  92 NW10      29.87R WCI  24
ELBOW LAKE     CLOUDY    30  30  98 NW21G30   29.95R FOG     WCI  17
WADENA         CLOUDY    30  30 100 NW13      29.89R FOG     WCI  20
DETROIT LAKES  CLOUDY    28  28 100 NW20G28   29.95R FOG     WCI  15
MOORHEAD       CLOUDY    30  30 100 N22G29    30.03R WCI  17
FERGUS FALLS   CLOUDY    30  28  93 NW25G32   30.00R WCI  16
MORRIS MN      CLOUDY    32  30  93 NW24G36   29.94R FOG     WCI  19
STAPLES        CLOUDY    30  30 100 NW12      29.87R FOG     WCI  21
$$
  *****  WEATHER ELSEWHERE ACROSS MINNESOTA  *****

CITY           SKY/WX    TMP DP  RH WIND       PRES   REMARKS
DULUTH         FRZ DRZL  28  25  88 W8        29.80S FOG     WCI  20
INTRNTL FALLS  CLOUDY    28  26  92 NW13      29.85R WCI  17
ELY            CLOUDY    27  25  93 W3        29.80S FOG
CLOQUET        CLOUDY    28  27  93 W6        29.82S FOG     WCI  22
WHEATON        CLOUDY    28  28 100 NW24G31   30.03R FOG     WCI  14
BRAINERD       CLOUDY    29  28  96 W7        29.86R FOG     WCI  22
HIBBING        CLOUDY    28  25  88 W5        29.81S FOG     WCI  23
ALEXANDRIA     CLOUDY    32  30  92 NW20G28   29.90R WCI  20
SAINT CLOUD    CLOUDY    29  28  96 NW7       29.87R FOG     WCI  22
MINNEAPOLIS    CLOUDY    30  28  92 N7        29.86R FOG     WCI  23
$$

  *****  WEATHER ACROSS SOUTH DAKOTA  *****

CITY           SKY/WX    TMP DP  RH WIND       PRES   REMARKS
SIOUX FALLS    CLOUDY    34  30  85 N26G36    29.98R WCI  21
BROOKINGS      NOT AVBL
WATERTOWN      CLOUDY    31  28  89 NW24G33   30.01R WCI  17
HURON          CLOUDY    33  28  81 N23G35    30.09R WCI  21
SISSETON         N/A     31  30  96 N24       30.02R WCI  17
ABERDEEN       CLOUDY    33  27  78 NW24G33   30.12R WCI  20
MITCHELL       CLOUDY    34  29  82 NW26G33   30.10R WCI  21
PIERRE         CLOUDY    36  29  75 NW26      30.18R
MOBRIDGE       CLOUDY    35  29  78 NW18G30   30.17R WCI  24
RAPID CITY     MOCLDY    32  27  81 N21       30.28R WCI  20
$$

  *****  SOME WEATHER IN NEARBY STATES *****

CITY           SKY/WX    TMP DP  RH WIND       PRES   REMARKS
GLASGOW MT     CLEAR     30  26  85 NW12      30.36R WCI  20
GREAT FALLS MT CLEAR     31  29  92 E7        30.37  WCI  24
CHEYENNE WY    CLOUDY    37  24  59 N15       30.29R
SCOTTSBLUFF NE CLOUDY    40  30  67 W9        30.27R
OMAHA NE       CLOUDY    45  36  70 N32G45    29.89R
DES MOINES IA  MOCLDY    36  32  85 NW9       29.72R
DAVENPORT IA   CLEAR     36  29  75 SE8       29.71F
CHICAGO IL     LGT RAIN  34  23  64 S16G24    29.85F WCI  24
EAU CLAIRE WI  CLOUDY    29  23  78 CALM      29.81S
LA CROSSE WI   CLOUDY    34  26  72 N5        29.80S
$$

  *****  SOME NATIONAL WEATHER *****

CITY           SKY/WX    TMP DP  RH WIND       PRES   REMARKS
LA GUARDIA NY  CLEAR     25   7  46 N9        30.27S WCI  15
RALEIGH NC     PTCLDY    26  14  60 CALM      30.33S
ATLANTA GA     PTCLDY    42  27  55 SE5       30.26F
NEW ORLEANS LA PTCLDY    50  44  80 S5        30.22S
OKLAHOMA CITY  MOCLDY    54  39  57 NW6       30.00R
ALBUQUERQUE NM MOCLDY    50  29  44 N10       30.24R
SALT LAKE CITY PTCLDY    38  35  89 CALM      30.35R
LOS ANGELES CA CLOUDY    63  54  72 CALM      30.09R
BOISE ID       CLEAR     36  34  92 SE8       30.37S
SEATTLE WA     PTCLDY    44  40  85 N8        30.36S
$$

*** WEATHER ACROSS MANITOBA...SASKATCHEWAN AND ONTARIO ***
                ***ONTARIO***

CITY           SKY/WX    TMP DP  RH WIND       PRES   REMARKS
GERALDTON      SNOW      25  23  93 E5        29.78F VSB 1/2 WCI  19
THUNDER BAY    LGT SNOW  27  27 100 W3        29.80S
SIOUX LOOKOUT  FLURRIES  21  18  86 N10G17    29.81R WCI  10
TORONTO        CLOUDY    19   7  58 SE5       30.24F WCI  13
BIG TROUT LK   CLOUDY    -8 -13  77 N6        30.13S WCI -21
PICKLE LAKE    NOT AVBL
DRYDEN         CLOUDY    23  23 100 N9G21     29.84R WCI  13
KENORA         FLURRIES  21  19  93 N10G18    29.91R WCI  10
$$
                *** MANITOBA***

CITY           SKY/WX    TMP DP  RH WIND       PRES   REMARKS
BRANDON        CLOUDY    19  16  86 NW18      30.19R WCI   4
DAUPHIN        LGT SNOW  12   9  85 N8        30.26R WCI   1
ISLAND LAKE    FLURRIES  -4  -9  77 N6        30.18R WCI -16
PILOT MOUND      N/A     18  16  93 N12         N/A  WCI   5
THE PAS        CLEAR     -4  -9  77 NW13      30.36R WCI -23
THOMPSON       FLURRIES  -9 -17  70 NW6       30.29S WCI -23
WINNIPEG       CLOUDY    16  10  79 NW16      30.13R WCI   0
LYNN LAKE      CLEAR    -15 -18  84 NW8       30.32R WCI -32
CHURCHILL      CLEAR    -20 -27  69 W12       30.26F WCI -42
GILLAM         FLURRIES -13 -20  70 NW5       30.29R WCI -25
$$
                ***SASKATCHEWAN***

CITY           SKY/WX    TMP DP  RH WIND       PRES   REMARKS
ESTEVAN        FLURRIES  25  21  86 NW18G29   30.28R WCI  11
KINDERSLEY     PTCLDY    14  10  85 N9        30.38R WCI   2
LLOYDMINSTER   PTCLDY     5   1  85 NW5       30.40R WCI  -4
PRINCE ALBERT  FLURRIES   7   1  78 N9        30.41R WCI  -7
REGINA         CLOUDY    23  21  93 NW20      30.32R WCI   8
YORKTON        LGT SNOW  14  10  85 NW14G21   30.28R WCI  -1
N. BATTLEFORD  CLEAR      9   5  85 NW10      30.43R WCI  -6
LA RONGE       CLEAR     -2  -8  78 NW7       30.44R WCI -16
SASKATOON      CLOUDY    16  10  79 N10       30.40R WCI   3
SWIFT CURRENT  CLOUDY    21  19  93 NW13      30.34R WCI   9
$$
NOTE: THESE ARE AUTOMATED STATIONS WITH LIMITED QUALITY CONTROL
      "FAIR" INDICATES FEW OR NO CLOUDS BELOW 12,000 FEET WITH NO
      SIGNIFICANT WEATHER AND/OR OBSTRUCTIONS TO VISIBILITY.
      SKY/WX - SKY CONDITION AND SIGNIFICANT WEATHER.
      TMP - AIR TEMPERATURE.    DP   - DEWPOINT TEMPERATURE.
      RH  - RELATIVE HUMIDITY.  PRES - PRESSURE.
      HX  - HEAT INDEX.         WCI  - WIND CHILL INDEX.
$



USA.gov is the U.S. government's official web portal to all federal, state and local government web resources and services.